{"data":{"norad_id":67426,"intl_designator":"2026-005Y","name":"STARLINK-36146","alt_names":[],"object_type":"PAYLOAD","status":"ACTIVE","operator":null,"country":"US","launch_date":"2026-01-12","launch_site_code":"AFETR","launch_vehicle":null,"mission":null,"orbit_class":"UNKNOWN","rcs_meters":null,"size_class":null,"mass_kg":null,"dimensions":null,"purposes":["comms"],"wikipedia_slug":null,"has_3d_model":false,"image_url":null,"decayed_at":null,"tle_current":{"epoch":"2026-05-24T10:01:57.454176Z","epoch_age_seconds":125054,"freshness":"FRESH","line1":"1 67426U 26005Y   26144.41802609  .00031186  00000+0  11380-2 0  9998","line2":"2 67426  43.0020 170.6963 0001313 266.3424  93.7277 15.27579474 20269","mean_motion":15.27579474,"eccentricity":0.0001313,"inclination_deg":43.002,"raan_deg":170.6963,"arg_perigee_deg":266.3424,"mean_anomaly_deg":93.7277,"bstar":0.001138,"rev_number":2026,"period_min":94.266781173049,"perigee_km":482.14979713212,"apogee_km":483.95154501454,"semimajor_km":6861.1876710733,"source":"CELESTRAK","updated_at":"2026-05-25T13:38:21.557238Z"}}}